Location: Goldmont Forest
(38.0233°N, 120.2524°W)
Time: 23:28:29
(UTC+00:00)

Cosmos 1674 Rocket - Pass Details

Date: 05 August 2024
Orbit: 599 x 625 km, 82.5° (Epoch: 08 September)

Event Time Altitude Azimuth Distance (km) Brightness Sun altitude
Rises 12:19:02 0° 357° (N) 2,917 7.4 -9.5°
Reaches altitude 10° 12:21:19 10° 2° (N) 2,007 6.6 -9.1°
Maximum altitude 12:25:41 56° 81° (E) 749 4.4 -8.4°
Drops below altitude 10° 12:30:01 10° 159° (SSE) 1,990 6.1 -7.6°
Sets 12:32:17 0° 164° (SSE) 2,889 6.9 -7.2°
